Regional Weather Roundup
Issued by NWS

Home | Current Version | Previous Version | Graphics & Text | Print | Product List | Glossary On
Versions: 1 2 3 4 5 6 7 8 9 10 11 12 13 14 15 16 17 18 19 20 21 22 23 24 25 26 27 28
000
ASUS45 KPSR 192110
RWRAZ

ARIZONA HOURLY REGIONAL WEATHER ROUNDUP
NATIONAL WEATHER SERVICE PHOENIX AZ
200 PM MST THU JAN 19 2017

NOTE: FAIR INDICATES FEW OR NO CLOUDS BELOW 12,000 FEET WITH NO
SIGNIFICANT WEATHER AND/OR OBSTRUCTIONS TO VISIBILITY.

AZZ001>003-036-192200-
NORTHWEST ARIZONA

CITY           SKY/WX    TMP DP  RH WIND       PRES   REMARKS
BULLHEAD CITY  CLOUDY    54  50  87 VRB5G12   29.85F
KINGMAN        LGT RAIN  43  39  86 SW8       29.83F
$$

AZZ004>008-015-016-018-192200-
NORTH CENTRAL ARIZONA

CITY           SKY/WX    TMP DP  RH WIND       PRES   REMARKS
GRAND CANYON   LGT SNOW  32  31  96 SW17      29.80F FOG     WCI  21
WILLIAMS       CLOUDY    36  32  87 S14G24    29.81F WCI  27
PRESCOTT       LGT RAIN  40  37  89 S10       29.85F WCI  33
FLAGSTAFF      LGT SNOW  30  29  96 SW17      29.82F VSB 3/4 WCI  18
PAYSON         DRIZZLE   37  36  93 VRB5      29.93F WCI  34
PAGE           CLOUDY    41  30  65 VRB3      29.78F
$$

AZZ009>014-017-192200-
NORTHEAST ARIZONA

CITY           SKY/WX    TMP DP  RH WIND       PRES   REMARKS
WINSLOW        PTSUNNY   47  34  60 SW12      29.83F
SAINT JOHNS    LGT RAIN  40  33  76 W9        29.85F WCI  34
SHOW LOW       CLOUDY    32  30  93 S22       29.89F WCI  19
$$

AZZ023-192200-
GREATER PHOENIX AREA

CITY           SKY/WX    TMP DP  RH WIND       PRES   REMARKS
PHOENIX        CLOUDY    56  39  53 SE9       29.90F
BUCKEYE        PTSUNNY   55  45  67 E8        29.90F
GLENDALE       CLOUDY    55  46  71 CALM      29.92F
LUKE AFB       PTSUNNY   55  45  67 CALM      29.90F
DEER VALLEY    CLOUDY    53  40  61 SE9       29.90F
SCOTTSDALE     CLOUDY    53  39  59 SE7       29.92F
MESA-FALCON    CLOUDY   N/A N/A N/A SE12      29.89F
MESA-GATEWAY   CLOUDY    54  43  66 SE9       29.93F
CHANDLER       CLOUDY    57  41  54 E8        29.92F
$$

AZZ027-028-192200-
SOUTHWEST MARICOPA COUNTY AND PINAL COUNTY

CITY           SKY/WX    TMP DP  RH WIND       PRES   REMARKS
CASA GRANDE    CLOUDY    56  42  59 E6        29.92F
$$

AZZ503-504-507>509-192200-
SOUTHEAST ARIZONA

CITY           SKY/WX    TMP DP  RH WIND       PRES   REMARKS
TUCSON         CLOUDY    57  33  40 E8        29.94F
DAVIS-MONTHAN  PTSUNNY   56  33  42 SE8       29.93F
RYAN FIELD     PTSUNNY   57  34  41 E9        29.94F
NOGALES        PTSUNNY   58  29  33 S12G18    29.95F
SIERRA VISTA   PTSUNNY   51  30  44 NW10      29.96F
DOUGLAS        PTSUNNY   54  25  32 W10       29.95F
SAFFORD        CLOUDY    49  39  68 NW5       29.93F
$$

AZZ020-021-025-026-031-192200-
SOUTHWEST ARIZONA

CITY           SKY/WX    TMP DP  RH WIND       PRES   REMARKS
YUMA           PTSUNNY   68  49  50 S18       29.85F
$$

CAZ031-033-041-043-047-048-061-192200-
SOUTHERN CALIFORNIA

CITY           SKY/WX    TMP DP  RH WIND       PRES   REMARKS
DOWNTOWN L.A.  FAIR      64  49  57 VRB5      29.91F
L.A. AIRPORT   FAIR      61  51  70 W24       29.91F
SAN DIEGO      PTSUNNY   63  52  67 W12G18    29.98S
BURBANK        PTSUNNY   61  41  47 W10       29.90F
ONTARIO        FAIR      59  46  62 SW14G21   29.89F
RIVERSIDE      PTSUNNY   56  49  77 SW8       29.91F
PALM SPRINGS   PTSUNNY   54  51  90 S5        29.87F
EL CENTRO NAS  PTSUNNY   62  54  74 VRB3      29.87F
IMPERIAL       PTSUNNY   61  55  81 N6        29.86F
BLYTHE         CLOUDY    62  49  62 S18       29.86F
NEEDLES        LGT RAIN  55  48  77 E5        29.85F
$$

NVZ020-UTZ003-192200-
SOUTHERN NEVADA-UTAH

CITY           SKY/WX    TMP DP  RH WIND       PRES   REMARKS
LAS VEGAS      PTSUNNY   56  37  49 S16G25    29.73F
SALT LAKE CITY LGT SNOW  33  32  96 CALM      29.74S VSB 1
$$

NMZ009-TXZ055-192200-
NEW MEXICO-WEST TEXAS

CITY           SKY/WX    TMP DP  RH WIND       PRES   REMARKS
ALBUQUERQUE    CLOUDY    47  28  47 CALM      29.80F
EL PASO        PTSUNNY   55  29  36 W13G29    29.87F
$$


........................KEY........................
SKY/WX - SKY CONDITION/WEATHER
TMP    - TEMPERATURE IN FAHRENHEIT
DP     - DEW POINT IN FAHRENHEIT
RH     - RELATIVE HUMIDITY IN PERCENT
WIND   - DIRECTION AND SPEED IN MILES PER HOUR (MPH)
VRB    - VARIABLE WIND DIRECTION
PRES   - MEAN SEA LEVEL PRESSURE IN INCHES OF MERCURY
         F - FALLING PRESSURE   R - RISING PRESSURE
         S - STEADY PRESSURE
VSB    - VISIBILITY IN MILES
HX     - HEAT INDEX IN FAHRENHEIT
WCI    - WIND CHILL INDEX IN FAHRENHEIT
TC     - TEMPERATURE IN CELSIUS WHICH IS ALSO KNOWN AS
         TEMPERATURE IN CENTIGRADE
AFB    - AIR FORCE BASE
         LUKE AFB IS LUKE AIR FORCE BASE
         DAVIS-MONTHAN IS DAVIS-MONTHAN AIR FORCE BASE
NAS    - NAVAL AIR STATION
         EL CENTRO NAS IS EL CENTRO NAVAL AIR STATION
N/A    - NOT AVAILABLE





USA.gov is the U.S. government's official web portal to all federal, state and local government web resources and services.